STARLINK-3561 (52284 NORAD) Tracking and Keplerian Element Data
This shows tracking and keplerian element data for the satellite.
Feedback or suggestion? Click here.
Element | Value |
Catalog | 52284 |
Name | STARLINK-3561 |
Epoch Orbit | 130 |
Epoch Day | 167.08334491 |
Epoch Year | 2022 |
RAAN | 101.3698 |
Inclination | 53.2172 |
Eccentricity | 0.0001228 |
Argument of Perigee | 77.4486 |
Mean Anonmoly | 188.306 |
Mean Motion | 15.54918852 |
Decay Rate | -0.00712833 |
L1 | 1 52284U 22041Z 22167.08334491 -.00712833 00000+0 -11445-1 0 9991 |
L2 | 2 52284 53.2172 101.3698 0001228 77.4486 188.3060 15.54918852 1308 |
Live tracking and technical data element details for STARLINK-3561 (NORAD 52284). STARLINK-3561 can be tracked NOW for your location showing map with azimuth and elevation plus other details from your city location.
Track the satellite on the map from your city or location and see movement details for azimuth, elevation, latitude, longitude, range, height, and movement on the map or in text.
IsCatalogInMostPopularTable: catalog: 52284, numindb: 1
Update: records affected: 1
GetName: 52284 STARLINK-3561
Hit Count: updated at: Mon, 27 Jun 2022 05:35:59 GMT